sat.trackr.live / text

‹ back to catalog

2024-018A

NORAD 58849 · 2024-018A

PAYLOAD ACTIVE UNKNOWN

§ Identity

Operator
Country
IRAN
Launch date
2024-01-28
Launch site
SEMLS
Launch vehicle
Mass (kg)
RCS (m²)

External: N2YO · Heavens-Above · Gunter

§ Orbital elements

Epoch: 2026-09-22T22:50:43.022976Z

Period
100.01 min
Inclination
58.6879°
Eccentricity
0.0425040
Mean motion
14.39856401 rev/d
Perigee alt
455.6 km
Apogee alt
1,062.3 km
Semi-major
7,137.1 km
B*
7.4544e-5
RAAN
247.1372°
Arg perigee
220.4817°
Mean anomaly
136.3866°
Rev number
13,925

§ Raw data

2024-018A1 58849U 24018A   26265.95188684  .00000445  00000+0  74544-4 0  99992 58849  58.6879 247.1372 0425040 220.4817 136.3866 14.39856401139258

JSON: /api/v1/satellites/58849 · /tle

For live sub-satellite position, see the globe view (requires WebGL).

§ Visibility from observer

Set your observer location to see the next 7 days of passes ≥ 10°. The values pass through the URL so the page stays shareable.

No JS? Fill the form by hand. The geolocation button needs JavaScript.

§ Radio — SatNOGS DB

ModeDescriptionDownlinkUplink
FM S-band telemetry 2.221 GHz

1 transmitter · refreshed weekly from db.satnogs.org